GEFSSE_con_cape1000_228.txt.gz
Probability
68 77 94 94 94 94 94 94 94 90 97 97 94 90 94 87 87 77 77 77 77 77 81 81 74 74 74 71 68 68 65 74 71 68 74 77 77 81 84 84 81 68 94
68 87 94 94 90 90 90 90 90 94 94 90 94 90 90 84 84 77 77 77 77 77 71 61 65 61 65 58 58 55 55 58 58 58 65 61 68 81 90 87 81 81 90
68 84 90 90 90 90 87 87 87 87 87 87 87 87 84 87 84 77 77 74 74 71 68 68 65 55 48 52 52 55 55 58 58 58 55 45 48 77 94 94 97 90 90
65 81 81 87 90 90 90 87 87 87 87 84 81 84 84 81 81 77 77 74 71 71 68 65 61 48 52 48 55 58 55 58 61 55 39 39 42 71 97 94 94 90 84
61 71 84 84 84 84 87 90 90 87 84 81 84 84 84 84 81 74 71 71 68 68 65 65 61 58 55 52 52 48 42 48 48 48 29 26 16 52 87 90 90 90 90
61 74 84 84 84 84 84 84 90 84 84 81 81 74 81 81 81 77 77 68 65 65 61 61 68 61 61 52 52 48 48 42 35 26 26 23 16 55 84 90 90 87 84
58 74 84 84 84 84 84 81 81 84 77 77 77 77 77 74 74 74 68 65 61 58 68 68 68 65 61 58 52 52 48 48 29 26 23 19 19 71 74 84 81 84 81
58 74 77 84 84 84 84 84 81 77 74 71 74 74 74 74 74 74 68 68 65 61 65 65 65 68 61 58 55 55 61 55 29 26 26 23 29 74 77 81 77 81 81
61 71 74 77 77 84 84 84 77 71 71 71 71 74 74 74 74 71 71 68 65 61 61 55 52 61 58 58 58 61 61 55 35 23 26 16 35 71 74 74 77 81 71
45 52 58 61 71 71 74 74 68 71 71 71 71 71 71 71 65 65 68 68 61 55 52 48 52 58 52 58 58 65 65 58 39 26 19 16 58 65 65 74 74 71 74
35 39 39 48 45 55 65 65 68 68 68 68 68 68 68 58 61 61 61 61 58 58 55 58 52 55 52 52 55 61 58 45 29 26 23 29 58 65 61 61 68 65 65
35 35 29 29 35 39 42 52 58 58 61 58 55 55 52 45 35 48 48 61 61 61 58 58 55 52 48 42 42 42 39 32 29 23 16 45 61 61 55 55 55 55 55
26 32 23 26 23 29 35 45 42 42 48 45 45 39 32 32 32 39 29 45 48 55 45 52 52 42 39 35 39 19 26 19 19 16 13 55 68 58 52 52 48 45 55
23 32 26 26 23 29 32 39 39 39 35 39 35 32 32 32 29 26 16 23 26 26 23 23 23 26 26 26 23 19 23 16 19 16 10 48 58 55 52 45 42 39 42
23 29 26 26 23 19 26 32 32 35 35 26 23 29 29 29 23 19 19 19 19 23 19 16 19 19 23 19 16 16 16 13 13 13 10 23 52 48 45 42 42 42 45
19 19 19 13 16 19 23 23 26 19 16 23 26 26 26 26 23 23 19 26 23 16 16 19 23 19 16 13 10 13 10 13 10 3 6 6 35 48 45 48 42 45 48
16 16 13 13 13 10 13 19 23 23 23 23 23 19 16 13 16 23 19 23 16 19 19 16 19 10 10 10 6 3 3 6 6 6 3 3 10 32 39 48 45 42 35
16 19 16 23 13 10 10 13 16 19 23 23 19 19 13 10 13 16 19 19 13 10 10 6 6 6 6 3 6 3 3 3 6 6 6 6 3 3 13 39 35 39 32
10 10 10 13 16 16 10 16 19 19 19 19 13 13 10 10 13 13 16 19 13 10 3 3 3 3 3 3 3 0 3 3 3 6 6 6 3 3 3 13 26 39 32
13 6 6 3 13 16 16 13 13 16 16 13 10 13 10 10 13 10 13 13 10 10 6 3 3 3 3 3 0 0 0 0 3 3 6 3 3 3 3 6 10 13 26
10 10 10 10 13 16 16 16 10 10 13 13 13 10 10 10 6 6 10 10 10 13 3 3 3 3 3 0 0 0 0 0 0 0 3 3 3 3 3 3 3 3 6
13 10 10 13 13 16 16 13 13 16 13 13 13 13 13 6 6 6 10 10 10 6 6 3 3 3 0 0 0 0 0 0 0 0 0 0 0 3 3 3 3 3 3
16 13 13 10 10 10 13 13 16 6 6 6 6 13 10 10 10 10 10 10 10 6 6 3 0 0 0 0 0 0 0 0 0 0 0 0 0 0 0 3 3 3 3
23 13 13 16 13 16 16 13 10 13 13 6 3 3 6 6 10 10 10 10 10 6 0 0 0 0 0 0 0 0 0 0 0 0 0 0 0 0 0 0 0 0 3
19 19 13 13 13 13 13 10 10 10 6 6 6 6 3 6 6 10 6 6 6 3 0 0 0 0 0 0 0 0 0 0 0 0 0 0 0 0 0 0 0 0 0
16 13 10 10 6 6 3 3 6 3 6 6 6 6 3 6 6 6 6 6 6 3 0 0 0 0 0 0 0 0 0 0 0 0 0 0 0 0 0 0 0 0 0

GEFSSE_con_cape1000_234.txt.gz
Probability
45 65 84 87 90 87 90 90 90 90 94 94 94 97 94 90 84 84 84 84 81 81 77 77 74 71 71 68 68 71 74 74 81 81 74 77 74 77 84 87 90 71 77
48 71 84 87 87 87 87 90 90 90 94 94 90 94 94 90 90 87 84 81 77 77 74 74 74 74 68 71 71 71 71 74 71 71 61 61 61 68 84 81 74 74 84
61 77 84 87 87 87 87 87 87 87 90 90 90 90 90 87 84 81 81 74 74 74 74 71 68 65 61 68 65 61 58 65 65 61 58 55 61 68 77 81 87 84 84
65 77 84 84 84 87 87 87 87 87 87 90 87 90 87 84 81 77 74 74 74 71 71 71 65 65 61 58 61 61 58 61 61 61 55 45 42 61 74 84 87 84 84
71 77 84 84 84 84 84 87 87 84 84 81 81 81 81 74 74 74 74 74 74 74 71 68 68 65 65 61 61 58 52 55 58 55 39 32 32 52 77 81 90 87 87
65 74 81 84 84 81 81 81 81 84 81 74 74 81 81 81 74 74 71 71 74 71 65 68 65 65 68 65 58 58 55 58 55 35 29 23 29 42 58 71 81 84 90
55 61 71 81 81 81 81 81 81 77 77 74 74 74 74 74 77 74 68 68 65 68 68 65 65 68 71 65 65 55 55 58 45 32 29 26 32 39 65 77 81 81 87
52 58 65 74 77 81 81 81 81 81 77 74 74 71 71 74 74 74 74 74 71 65 61 61 68 68 65 68 61 58 55 55 45 35 26 23 29 42 58 74 81 81 77
48 55 61 71 71 74 77 77 77 77 74 71 74 71 71 68 68 65 68 65 65 61 58 58 58 65 61 58 58 55 55 58 55 39 32 29 32 52 61 71 74 74 81
45 48 48 65 65 71 71 68 68 71 71 71 68 65 65 68 65 65 65 68 61 55 52 58 55 48 55 55 52 58 61 55 48 42 29 26 39 55 55 61 74 74 71
39 42 35 45 52 55 61 61 61 61 65 61 61 61 58 52 55 55 55 68 61 61 55 52 52 48 48 48 55 45 45 42 42 39 35 39 45 48 58 61 65 65 68
32 35 32 32 39 42 48 45 45 45 52 52 55 52 48 39 39 39 52 52 52 58 55 52 48 45 45 42 42 42 39 35 39 32 32 48 55 58 65 65 58 58 58
26 26 29 26 26 32 26 32 39 39 35 42 45 39 32 32 26 32 26 32 32 35 32 35 32 35 29 32 32 29 29 35 29 29 26 39 52 55 65 58 58 58 58
19 19 23 29 23 19 19 29 35 29 32 32 29 29 26 23 23 23 23 19 23 29 26 26 23 23 23 19 23 23 26 26 23 23 19 29 48 58 58 45 42 48 52
16 16 19 16 16 16 16 13 26 23 26 23 19 19 23 23 13 13 16 13 13 16 19 23 19 16 16 16 16 16 16 16 16 19 19 26 39 52 42 45 45 42 48
19 19 23 13 13 13 13 10 10 19 19 19 16 19 16 16 13 10 10 10 10 6 10 10 13 13 13 16 16 16 16 16 16 13 13 16 29 39 48 42 48 42 42
16 13 16 13 10 10 10 6 10 10 13 13 16 19 16 13 13 13 10 10 6 6 6 10 10 13 13 13 13 16 16 13 13 13 13 16 13 26 32 35 45 39 32
10 10 13 13 10 3 6 6 6 6 13 13 13 13 13 16 13 10 10 10 10 10 6 6 10 10 6 6 6 10 10 13 10 10 10 6 3 3 13 23 35 32 39
3 6 10 6 3 3 3 3 3 3 6 10 10 10 10 6 10 10 10 10 10 6 3 3 6 3 3 3 3 3 3 6 6 6 3 6 3 3 3 6 16 29 29
3 3 3 3 3 0 3 6 3 6 6 6 10 10 10 10 10 6 6 6 3 3 3 3 3 3 3 3 3 3 3 6 6 6 3 0 0 0 3 3 6 23 26
6 6 6 3 3 3 3 6 6 6 3 3 3 6 6 10 10 10 6 6 3 3 3 3 3 3 3 3 3 3 3 0 0 0 0 0 0 0 0 3 6 6 13
10 6 10 6 3 3 3 3 6 6 0 0 0 3 6 10 10 10 10 6 3 3 3 3 3 3 3 3 3 3 0 0 0 0 0 0 0 0 0 3 6 6 10
10 10 13 3 3 3 3 3 3 3 0 3 0 0 0 6 10 10 6 6 3 3 3 3 3 3 3 3 0 0 0 0 0 0 0 0 0 0 0 3 3 6 6
13 13 10 3 3 3 3 3 6 3 3 3 6 0 0 0 3 3 6 6 6 6 6 6 3 3 3 3 0 0 0 0 0 0 0 0 0 0 0 0 0 3 3
6 6 6 3 3 3 3 3 3 3 3 0 3 0 0 0 0 0 3 3 3 3 6 6 6 3 3 3 0 0 0 0 0 0 0 0 0 0 0 0 0 0 0
6 6 3 3 6 3 3 3 3 3 3 3 3 0 0 0 0 0 0 3 0 0 0 3 3 3 3 3 0 0 0 0 0 0 0 0 0 0 0 0 0 0 0

GEFSSE_con_cape1000_240.txt.gz
Probability
32 55 77 77 81 84 84 84 87 87 90 94 97 84 90 90 90 90 90 84 81 81 81 81 81 77 74 74 68 68 71 68 71 71 71 74 68 68 71 77 65 58 81
32 58 81 81 84 84 87 87 87 87 90 90 94 94 84 81 84 81 81 81 81 81 77 81 77 74 74 68 71 71 71 71 68 71 71 68 68 68 74 74 77 74 77
42 65 74 84 84 84 87 87 87 87 90 90 90 90 87 84 81 84 81 81 77 77 77 77 74 74 71 65 65 65 65 68 68 58 61 55 65 71 71 77 71 77 81
48 74 77 84 84 84 84 84 84 84 87 90 87 81 77 77 81 81 77 77 71 71 71 68 68 68 68 65 65 65 68 68 61 55 48 32 35 68 71 74 74 77 81
52 71 77 84 81 77 77 77 77 77 81 77 81 77 77 74 77 74 71 74 74 71 65 65 68 68 68 68 65 58 55 55 58 42 26 29 35 68 61 71 74 74 81
48 52 71 77 74 77 77 77 77 77 77 74 77 81 74 71 68 68 71 74 68 68 68 65 61 61 65 65 61 58 55 55 42 29 29 32 32 68 58 71 74 68 77
48 45 61 77 74 71 74 77 77 77 74 74 77 74 74 71 68 71 68 71 68 68 65 65 61 58 58 58 61 55 55 52 42 29 29 32 39 58 48 61 71 74 81
48 45 61 74 74 74 71 71 71 68 71 74 71 68 68 71 68 68 68 68 65 65 61 58 58 52 58 55 58 55 55 52 32 32 35 35 48 55 52 61 71 71 77
52 48 52 58 71 74 74 74 74 68 68 68 61 61 61 61 61 61 61 65 61 61 58 55 55 45 55 55 52 48 55 55 39 35 26 35 52 58 61 74 74 68 74
42 55 55 55 58 61 68 71 68 71 65 61 58 55 55 58 58 61 61 61 58 58 55 58 52 52 52 52 52 52 52 52 32 29 32 39 52 52 61 68 71 77 74
42 45 48 52 65 61 55 65 61 65 55 61 61 58 55 55 48 58 52 55 52 52 52 52 48 45 45 42 42 42 42 32 26 35 45 45 48 55 58 61 68 71 71
45 48 52 48 55 52 52 58 55 45 52 58 61 58 52 42 39 29 45 45 45 45 48 45 39 42 39 39 42 39 29 23 29 29 35 45 45 45 58 65 71 68 61
52 52 52 48 58 48 55 45 48 48 61 52 48 52 52 45 42 29 45 45 45 42 42 42 32 32 29 35 35 32 26 29 32 32 35 48 48 45 55 55 65 71 65
48 48 52 55 55 55 55 45 48 48 45 42 58 52 52 52 42 39 39 29 29 35 39 35 39 32 35 29 26 29 23 29 29 32 48 42 39 39 45 52 55 58 58
48 45 45 52 55 58 55 45 39 39 35 42 48 48 45 39 42 39 32 42 35 29 32 39 26 26 29 26 26 19 23 19 16 16 23 32 32 32 45 42 39 45 45
32 42 42 42 48 52 52 52 35 29 35 35 32 42 45 39 35 39 39 45 39 32 32 35 29 26 26 23 19 19 19 16 23 23 19 16 29 35 39 39 39 42 45
35 42 42 42 42 48 52 48 35 35 32 35 39 42 39 42 42 42 32 39 42 35 35 32 23 23 23 13 13 10 16 19 16 16 19 16 16 19 32 35 39 35 42
39 42 39 32 35 42 39 45 35 29 26 39 42 39 35 39 42 45 39 29 35 29 26 29 23 19 16 16 16 13 10 19 13 13 13 19 16 10 16 29 35 32 35
39 39 39 39 39 39 35 35 35 35 29 32 29 26 32 26 29 35 32 32 35 32 26 23 19 19 19 23 10 13 10 13 6 10 10 10 16 19 16 29 29 35 32
35 32 39 35 39 35 35 32 35 29 26 19 19 29 29 35 32 32 32 35 29 26 29 23 23 23 13 16 6 10 10 16 13 10 13 13 16 16 13 16 19 23 29
35 35 35 35 39 35 32 29 29 23 23 19 23 23 26 23 23 26 23 26 26 19 23 16 16 10 10 10 10 13 13 13 16 16 13 13 13 16 19 16 16 19 19
35 32 32 32 39 39 29 35 32 29 23 19 19 16 16 23 23 23 23 23 23 26 19 19 16 10 6 10 10 16 6 10 19 6 13 13 10 13 13 13 16 19 16
29 32 32 35 35 35 32 32 26 26 16 16 13 16 16 16 19 19 16 16 19 10 13 16 19 13 6 6 16 13 6 6 6 6 16 10 13 16 13 16 13 19 19
29 29 39 35 32 35 29 29 29 26 19 16 16 16 16 16 16 16 16 13 16 10 13 10 6 13 16 13 13 13 13 13 10 6 13 16 19 19 13 10 10 10 13
23 23 26 26 29 32 32 26 26 19 19 16 16 19 19 16 16 13 13 13 13 13 10 10 10 10 10 10 13 10 10 13 10 10 10 13 13 13 16 16 16 16 10
23 23 26 26 26 29 29 23 23 19 23 19 19 16 19 16 10 10 10 13 13 13 13 13 13 10 10 10 10 10 10 13 10 16 13 6 16 13 10 19 16 16 13

GEFSSE_con_cape1000_246.txt.gz
Probability
42 68 87 84 77 74 81 81 81 77 81 81 77 77 77 84 87 87 87 81 81 81 77 81 81 77 74 71 65 65 65 68 71 71 68 74 74 74 71 71 71 65 87
52 68 87 84 81 81 84 84 84 84 84 84 81 77 77 81 81 84 84 77 74 74 74 74 71 65 61 68 65 65 65 58 61 65 65 68 68 74 68 71 74 71 90
58 71 84 84 84 84 81 81 81 81 81 84 77 77 74 77 77 84 84 84 87 81 74 68 65 61 58 61 65 61 58 61 61 61 65 61 61 74 84 68 68 81 77
65 68 74 84 81 81 81 77 77 81 84 74 77 81 74 77 77 84 81 77 71 68 68 68 65 65 65 68 61 61 61 58 65 61 61 48 52 81 77 68 65 65 65
61 71 77 81 81 77 77 74 77 77 74 71 68 71 71 68 71 74 74 71 71 68 61 58 58 58 61 52 55 55 52 52 61 61 35 32 35 77 74 68 65 58 68
58 65 71 74 74 71 71 74 74 81 74 71 71 74 74 68 71 68 61 65 65 65 61 58 52 52 45 55 58 48 52 55 48 32 26 29 55 77 71 65 61 55 68
55 68 71 74 74 71 71 65 68 71 65 61 68 71 68 68 68 61 61 65 65 58 55 55 55 55 61 55 48 55 48 52 52 32 29 39 52 74 71 61 55 65 71
55 61 68 74 74 71 71 68 68 68 65 68 68 71 68 68 68 61 61 58 58 55 52 42 48 55 61 58 52 52 52 52 42 35 35 29 74 74 71 65 68 68 68
55 55 61 68 74 71 74 71 68 65 68 68 68 61 65 68 55 55 52 55 52 52 52 45 48 48 45 45 52 55 55 55 39 32 23 29 61 65 68 65 68 65 68
48 55 42 55 58 58 71 74 74 65 68 68 61 61 61 61 55 52 52 55 48 48 52 48 48 48 45 45 52 52 48 45 29 26 29 42 65 65 65 61 61 71 68
42 42 48 48 58 48 45 61 68 65 68 71 65 61 58 52 45 61 48 58 48 48 45 42 48 48 52 52 52 52 52 32 26 19 23 58 58 61 55 52 58 65 68
42 42 45 45 52 45 45 55 68 58 65 58 58 65 65 68 65 55 61 61 58 55 48 48 55 52 42 39 42 58 42 29 26 23 35 61 65 52 48 52 61 68 71
39 45 48 48 58 58 55 52 58 65 68 65 68 71 71 71 65 61 58 58 58 58 55 58 48 39 35 39 32 35 35 29 26 32 35 61 61 55 45 58 61 58 71
55 52 45 52 58 61 65 58 68 65 68 65 68 68 68 61 65 61 65 58 58 55 52 48 45 35 35 29 19 19 26 32 26 29 32 48 48 42 45 58 52 52 58
55 52 48 52 58 65 68 65 58 68 61 61 68 61 58 61 58 58 55 52 52 52 52 42 35 26 26 26 19 19 19 23 19 23 29 48 52 39 35 39 45 52 55
45 48 52 48 58 61 61 61 61 55 61 58 52 58 61 55 55 58 52 48 48 48 39 35 32 32 29 29 23 19 19 13 16 23 16 32 32 39 39 35 42 48 52
45 48 55 52 58 55 55 52 48 48 52 58 58 52 55 52 55 48 45 52 52 42 42 42 42 39 32 23 23 16 26 19 16 19 16 13 13 29 42 42 48 45 45
42 48 55 39 45 58 52 52 48 48 52 48 55 55 48 52 48 42 39 45 42 45 42 42 39 29 29 26 19 13 16 13 13 13 10 13 16 10 29 35 45 42 42
45 48 45 45 48 55 48 45 45 48 48 39 45 52 42 42 39 45 42 45 45 45 39 32 32 32 26 29 19 19 13 10 19 6 10 13 13 13 13 26 39 45 42
45 55 52 42 39 45 42 45 52 45 42 39 39 39 42 48 42 39 35 45 39 39 35 29 29 29 26 26 10 10 10 13 13 19 16 13 10 10 10 10 19 26 45
45 45 48 42 48 42 42 35 45 42 42 35 29 26 42 45 39 32 29 35 29 32 29 26 29 26 26 23 23 23 16 10 10 16 16 13 13 10 10 16 10 10 6
42 45 42 42 48 48 48 48 42 39 35 29 32 29 32 35 39 19 26 23 26 26 26 29 29 19 19 19 23 19 13 13 16 3 6 13 13 16 19 10 10 13 13
39 42 35 45 48 48 48 45 42 42 32 29 29 26 29 19 19 26 23 19 19 19 23 23 26 16 13 16 23 16 10 6 6 6 3 3 3 10 10 10 10 10 13
32 35 42 45 45 45 45 45 39 32 26 29 23 23 26 16 19 16 13 16 19 19 16 19 13 13 13 13 13 19 19 13 6 6 10 6 6 6 6 3 3 6 10
35 39 35 39 39 35 42 42 42 35 29 26 26 26 32 26 26 13 16 29 19 19 16 10 13 13 16 16 16 13 6 6 6 6 3 3 3 6 6 6 6 6 6
35 35 35 39 35 35 35 32 39 35 23 23 29 23 29 32 26 19 23 32 26 23 19 19 19 16 13 16 10 10 10 3 3 3 3 3 3 3 6 6 6 10 6

GEFSSE_con_cape1000_252.txt.gz
Probability
48 71 87 84 84 84 87 84 84 84 84 90 81 84 81 81 87 84 87 84 84 81 74 77 77 77 74 74 74 74 77 81 77 81 68 68 68 81 77 87 90 71 90
48 77 87 84 84 84 81 84 87 87 84 87 84 77 77 84 87 87 87 81 81 81 81 77 74 71 68 68 68 71 74 74 74 77 71 65 65 71 77 71 77 81 90
61 74 77 84 84 81 81 81 81 84 84 77 81 81 74 81 81 81 84 84 84 77 77 71 68 68 65 65 68 71 65 71 74 71 68 48 55 71 84 77 77 81 84
61 71 71 81 77 77 81 81 81 81 84 81 77 77 77 77 81 81 77 74 74 74 77 65 61 58 65 68 65 58 61 65 65 58 35 39 35 65 81 81 81 71 71
55 65 71 74 74 74 74 74 74 77 81 77 74 77 77 77 77 77 74 71 74 71 68 58 58 61 58 58 55 55 55 58 58 48 32 26 23 61 81 71 68 68 74
58 61 74 74 74 74 74 74 74 77 81 74 74 74 74 74 68 71 71 74 68 68 68 58 48 55 48 48 55 48 52 55 45 32 26 23 13 61 74 68 65 65 68
48 61 71 71 71 71 71 71 74 74 77 77 74 74 74 71 68 65 65 65 71 65 65 55 52 52 48 52 55 52 48 39 35 26 23 13 16 61 74 77 68 68 68
45 58 61 68 68 71 71 71 71 71 71 77 77 77 74 68 65 68 68 61 55 55 58 52 55 52 52 52 42 39 42 42 35 32 29 13 35 71 74 74 74 68 65
55 55 55 58 65 68 68 71 71 68 68 71 71 74 71 65 65 65 65 58 55 52 52 48 45 48 55 55 48 45 45 45 32 26 26 23 48 71 77 77 71 71 68
45 48 55 55 58 58 61 65 68 68 65 68 71 74 68 65 65 61 61 58 58 55 52 48 48 52 52 48 52 52 45 42 29 26 19 29 68 71 71 65 68 61 61
35 42 55 52 55 55 55 55 55 68 65 61 61 71 61 52 52 55 58 58 61 58 55 52 55 58 58 52 52 55 48 35 23 16 23 35 65 65 65 61 61 61 61
29 35 42 45 48 52 52 52 52 52 52 52 45 45 45 42 42 45 52 58 58 58 52 52 55 55 48 29 32 45 29 23 23 19 23 45 52 65 61 61 58 61 65
10 29 29 35 42 35 35 39 42 39 39 39 35 42 35 29 32 35 35 52 48 52 45 45 42 32 29 19 19 13 13 13 10 19 23 48 61 61 61 55 61 55 55
10 19 29 29 26 19 26 26 32 29 29 29 26 26 29 23 19 16 19 23 35 32 26 23 26 16 19 13 6 6 10 10 6 10 13 39 58 52 55 52 52 48 52
16 26 29 23 23 19 23 23 26 23 23 23 26 26 26 13 16 19 13 10 13 16 19 6 10 6 10 10 10 10 10 10 6 6 13 29 45 45 42 45 48 52 52
26 23 23 23 23 19 16 16 16 19 13 13 13 19 13 13 10 13 6 3 6 6 6 6 13 10 10 10 10 10 6 6 3 3 6 19 29 39 42 39 42 45 48
23 26 23 19 19 19 16 13 10 19 19 10 10 16 6 10 6 10 10 10 10 10 10 10 10 10 10 6 6 6 6 6 3 3 6 3 10 23 42 35 39 35 45
23 26 23 23 19 16 13 10 6 13 10 10 10 10 10 10 6 10 13 13 16 13 10 10 10 10 6 6 6 3 6 3 3 3 3 3 3 10 19 29 26 29 29
23 26 23 23 19 13 10 6 10 10 10 10 13 10 13 13 10 10 10 19 16 13 6 6 6 6 6 3 3 3 3 0 0 0 3 3 3 3 6 16 26 29 29
16 16 19 19 16 16 6 10 6 6 6 10 13 16 16 13 13 10 16 19 16 6 6 6 6 6 6 6 6 3 3 0 0 0 0 0 0 0 3 3 13 16 26
16 16 16 10 13 16 16 13 10 10 10 13 13 13 16 10 10 6 13 10 10 10 6 6 6 6 3 3 3 3 0 0 0 0 0 0 0 0 0 0 3 3 3
19 16 16 13 13 16 13 13 10 13 6 3 6 6 13 10 6 10 3 6 3 3 3 3 3 3 3 3 3 0 0 0 0 0 0 0 0 0 0 0 0 0 3
19 16 16 16 13 10 10 10 10 10 6 6 6 6 10 10 6 6 6 6 3 3 3 3 3 3 3 0 0 0 0 0 0 0 0 0 0 0 0 0 0 0 0
19 13 13 6 10 10 13 10 10 6 6 6 3 6 6 10 6 10 6 6 6 3 3 6 3 3 3 3 0 0 0 0 0 0 0 0 0 0 0 0 0 0 0
16 16 16 10 10 10 10 10 6 6 6 6 6 6 10 10 10 3 6 10 10 10 6 6 6 3 0 0 0 0 0 0 0 0 0 0 0 0 0 0 0 0 0
19 16 16 16 13 13 10 10 6 6 6 6 6 6 6 6 6 6 6 6 6 10 6 6 6 3 0 0 0 0 0 0 0 0 0 0 0 0 0 0 0 0 0